FENGYUN 1C DEB, 37435

Orbit data source: Space-Track

FENGYUN 1C DEB, 37435 is space debris in SSO originally from a launch on Mon, 10 May 1999 UTC launched from the Taiyaun Space Center, China (TSC). Fengyun 1C debris stems from the Chinese weather satellite Fengyun-1C, which was intentionally destroyed by a Chinese anti-satellite missile in 2007. This event dramatically increased the amount of space debris, with thousands of trackable fragments posing hazards to satellites and human spaceflight. The Fengyun 1C debris cloud has become a focal point in discussions about space sustainability and the need for international regulations to prevent the creation of new debris.

Loading next visibility...
Identifier
37435, 1999-025EHD
Orbit
SSO
Country
Flag of CNCN / PRC
Related business
Manufacturer
Unknown
Mission
Spacecraft
Bus & Motor
Unknown
Mass
Unknown
Launch date (UTC)
1999-05-10 (27 years ago)
Launch vehicle
Unknown
Launch site
Taiyaun Space Center, China (TSC)
Object type
Payload
Rocket body
Debris
Shape & HBR
Unknown shape, 0.1 m
Radar Cross Section
Small (<0.1 m²)

Expand to show TLE details & history
Last TLE update: 1 week ago

TLE from 1 week ago
0 FENGYUN 1C DEB
1 37435U 99025EHD 26028.92753250  .00003378  00000-0  15164-2 0  9998
2 37435  98.6446  69.3468 0040845 234.8132 124.9218 14.22632012896105
Epoch: 2026-01-28T22:15Z
TLE epoch observation values (Epoch: 2026-01-28T22:15:38.807Z)
Latitude
Longitude
-32.75246°
Altitude
836.292 km
Speed
7.426 km/s
True Right ascension
04h 37m 23s
True Declination
0° 00' 00"
Sunlit
Object was in daylight at epoch
Visualization orbit readout
Latitude
Unknown
Longitude
Unknown
Altitude
Unknown
Speed
Unknown
Apparent Right ascension
Unknown
Apparent Declination
Unknown
Sunlit
N/A
Visualization observer readout
Local Sidereal Time
10:07:48
Azimuth
Unknown
Elevation
Unknown
Doppler factor
Unknown
Orbital elements
Apogee altitude
842.992 km
Perigee altitude
784.242 km
Semi-major axis
7,191.754 km
Eccentricity
0.00408
Inclination
98.6446°
RAAN
69.3468°
Arg. of periapsis
234.8132°
True anomaly
125.30445°
Mean anomaly
124.9218°
Eccentric anomaly
125.11324°
Mean motion
3.5587 °/min
Orbital period
101.16 mins
BSTAR
0.0015164
Loading maneuver chart data...
Computing Atmospheric mass density...

Documentation

Showing up to 5 results
|